CW8553 Weather Reports


Display with metric or nautical units.
time (UTC)temp
F
wind
direction
speed
MPH
gust
MPH
rain 1hr
in
rain 24hr
in
rain mn
in
humidity
%
barometer
mb
20260508050045 53 0 0.0 0.0 0.00 0.00 0.00 78 1016.7
20260508044538 54 0 0.0 0.0 0.00 0.00 0.00 77 1016.7
20260508043037 55 0 0.0 0.0 0.00 0.00 0.00 76 1016.8
20260508041537 56 0 0.0 0.0 0.00 0.00 0.00 75 1016.7
20260508040037 57 0 0.0 0.0 0.00 0.00 0.00 74 1016.8
20260508034539 57 0 0.0 0.0 0.00 0.00 0.00 72 1016.7
20260508033038 58 0 0.0 0.0 0.00 0.00 0.00 70 1016.7
20260508031537 59 0 0.0 0.0 0.00 0.00 0.00 69 1016.7
20260508030037 60 0 0.0 0.0 0.00 0.00 0.00 66 1016.6
20260508024536 61 0 0.0 0.0 0.00 0.00 0.00 66 1016.7
20260508023039 62 0 0.0 0.0 0.00 0.00 0.00 64 1016.8
20260508021538 62 0 0.0 0.0 0.00 0.00 0.00 62 1016.8
20260508020042 63 0 0.0 0.0 0.00 0.00 0.00 60 1016.9
20260508014538 62 0 0.0 0.0 0.00 0.00 0.00 63 1016.9
20260508013037 63 0 0.0 0.0 0.00 0.00 0.00 60 1017.1
20260508011549 63 0 0.0 0.0 0.00 0.00 0.00 62 1017.2
20260508010105 63 0 0.0 0.0 0.00 0.00 0.00 60 1017.4
20260508004550 63 0 0.0 0.0 0.00 0.00 0.00 57 1017.5
20260508003042 63 0 0.0 0.0 0.00 0.00 0.00 58 1017.6
20260508001541 63 0 0.0 0.0 0.00 0.00 0.00 60 1017.6
20260508000037 64 0 0.0 0.0 0.00 0.00 0.00 59 1017.8
20260507234537 65 0 0.0 0.0 0.00 0.00 0.00 57 1017.7
20260507233037 64 0 0.0 0.0 0.00 0.00 0.00 57 1017.9
20260507231539 64 0 0.0 0.0 0.00 0.00 0.00 59 1018.0
20260507230038 63 0 0.0 0.0 0.00 0.00 0.00 60 1018.1
20260507224545 63 0 0.0 0.0 0.00 0.00 0.00 60 1018.2
20260507223037 63 0 0.0 0.0 0.00 0.00 0.00 58 1018.4
20260507221539 63 0 0.0 0.0 0.00 0.00 0.00 58 1018.5
20260507220039 63 0 0.0 0.0 0.00 0.00 0.00 59 1018.5
20260507214537 64 0 0.0 0.0 0.00 0.00 0.00 58 1018.7
20260507213037 63 0 0.0 0.0 0.00 0.00 0.00 58 1018.8
20260507211543 63 0 0.0 0.0 0.00 0.00 0.00 59 1019.1
20260507210039 63 0 0.0 0.0 0.00 0.00 0.00 60 1019.1
20260507204548 63 0 0.0 0.0 0.00 0.00 0.00 60 1019.3
20260507203038 63 0 0.0 0.0 0.00 0.00 0.00 58 1019.5
20260507201540 60 0 0.0 0.0 0.00 0.00 0.00 64 1019.7
20260507200039 59 0 0.0 0.0 0.00 0.00 0.00 65 1019.7
20260507194538 59 0 0.0 0.0 0.00 0.00 0.00 66 1019.7
20260507193038 58 0 0.0 0.0 0.00 0.00 0.00 64 1019.8
20260507191537 58 0 0.0 0.0 0.00 0.00 0.00 66 1020.0
20260507190041 57 0 0.0 0.0 0.00 0.00 0.00 66 1020.1
20260507184538 57 0 0.0 0.0 0.00 0.00 0.00 70 1020.2
20260507183041 58 0 0.0 0.0 0.00 0.00 0.00 68 1020.4
20260507181537 60 0 0.0 0.0 0.00 0.00 0.00 67 1020.4
20260507180040 59 0 0.0 0.0 0.00 0.00 0.00 66 1020.4
20260507174540 58 0 0.0 0.0 0.00 0.00 0.00 73 1020.5
20260507173041 58 0 0.0 0.0 0.00 0.00 0.00 73 1020.6
20260507171539 58 0 0.0 0.0 0.00 0.00 0.00 72 1020.5
20260507170039 56 0 0.0 0.0 0.00 0.00 0.00 73 1020.5
20260507164538 55 0 0.0 0.0 0.00 0.00 0.00 77 1020.5
20260507163037 55 0 0.0 0.0 0.00 0.00 0.00 76 1020.6
20260507161535 55 0 0.0 0.0 0.00 0.00 0.00 76 1020.6
20260507160041 54 0 0.0 0.0 0.00 0.00 0.00 78 1020.5
20260507154540 53 0 0.0 0.0 0.00 0.00 0.00 79 1020.7
20260507153046 52 0 0.0 0.0 0.00 0.00 0.00 81 1020.8
20260507151539 52 0 0.0 0.0 0.00 0.00 0.00 80 1020.7
20260507150037 52 0 0.0 0.0 0.00 0.00 0.00 81 1020.7
20260507144538 51 0 0.0 0.0 0.00 0.00 0.00 82 1020.7
20260507143037 51 0 0.0 0.0 0.00 0.00 0.00 82 1020.7
20260507141538 50 0 0.0 0.0 0.00 0.00 0.00 84 1020.7
20260507140052 50 0 0.0 0.0 0.00 0.00 0.00 85 1020.6
20260507134541 50 0 0.0 0.0 0.00 0.00 0.00 85 1020.3
20260507133039 50 0 0.0 0.0 0.00 0.00 0.00 86 1020.4
20260507131539 50 0 0.0 0.0 0.00 0.00 0.00 86 1020.1
20260507130049 50 0 0.0 0.0 0.00 0.00 0.00 87 1020.2
20260507124543 50 0 0.0 0.0 0.00 0.00 0.00 86 1020.2
20260507123051 50 0 0.0 0.0 0.00 0.00 0.00 87 1020.3
20260507121542 50 0 0.0 0.0 0.00 0.00 0.00 87 1020.3
20260507120040 50 0 0.0 0.0 0.00 0.00 0.00 88 1020.4
20260507114543 50 0 0.0 0.0 0.00 0.00 0.00 89 1020.5
20260507113039 50 0 0.0 0.0 0.00 0.00 0.00 89 1020.6
20260507111535 50 0 0.0 0.0 0.00 0.00 0.00 89 1020.7
20260507110042 50 0 0.0 0.0 0.00 0.00 0.00 90 1020.7
20260507104540 50 0 0.0 0.0 0.00 0.00 0.00 90 1020.7
20260507103038 50 0 0.0 0.0 0.00 0.00 0.00 91 1020.8
20260507101544 50 0 0.0 0.0 0.00 0.00 0.00 91 1020.8
20260507100044 50 0 0.0 0.0 0.00 0.00 0.00 91 1020.9
20260507094539 50 0 0.0 0.0 0.00 0.00 0.00 91 1020.8
20260507093040 50 0 0.0 0.0 0.00 0.00 0.00 91 1020.8
20260507091537 50 0 0.0 0.0 0.00 0.00 0.00 90 1020.8
20260507090038 50 0 0.0 0.0 0.00 0.00 0.00 89 1020.8
20260507084544 50 0 0.0 0.0 0.00 0.00 0.00 89 1020.8
20260507083047 51 0 0.0 0.0 0.00 0.00 0.00 90 1020.8
20260507081537 51 0 0.0 0.0 0.00 0.00 0.00 90 1020.8
20260507080047 51 0 0.0 0.0 0.00 0.00 0.00 90 1020.9
20260507074543 51 0 0.0 0.0 0.00 0.00 0.00 90 1020.9
20260507073035 51 0 0.0 0.0 0.00 0.00 0.00 91 1020.9
20260507071557 51 0 0.0 0.0 0.00 0.00 0.00 91 1020.9
20260507070039 51 0 0.0 0.0 0.00 0.00 0.00 91 1020.9
20260507064540 51 0 0.0 0.0 0.00 0.00 0.00 92 1021.0
20260507063040 51 0 0.0 0.0 0.00 0.00 0.00 92 1021.0
20260507061541 51 0 0.0 0.0 0.00 0.00 0.00 92 1021.1
20260507060035 51 0 0.0 0.0 0.00 0.00 0.00 92 1021.0
20260507054541 51 0 0.0 0.0 0.00 0.00 0.00 92 1021.0
20260507053042 52 0 0.0 0.0 0.00 0.00 0.00 91 1020.9
20260507051538 52 0 0.0 0.0 0.00 0.00 0.00 90 1020.9